GW1127 Weather Reports


Display with metric or nautical units.
time (UTC)temp
F
wind
direction
speed
MPH
gust
MPH
rain 1hr
in
rain 24hr
in
rain mn
in
humidity
%
barometer
mb
20260508015919 54 0.0 0.0 0.00 0.49 0.45 95 1008.5
20260508014940 54 0.0 0.0 0.00 0.49 0.45 95 1008.4
20260508013920 54 0.0 0.0 0.00 0.49 0.45 95 1008.0
20260508012920 54 0.0 0.0 0.00 0.49 0.45 95 1007.7
20260508011920 54 0.0 0.0 0.00 0.49 0.45 95 1007.9
20260508010940 54 0.0 0.0 0.00 0.49 0.45 95 1007.9
20260508005922 54 0.0 0.0 0.00 0.49 0.45 94 1007.7
20260508004921 54 339 1.0 2.0 0.00 0.49 0.45 94 1007.5
20260508003921 55 271 0.0 0.0 0.00 0.49 0.45 94 1007.5
20260508002921 55 0.0 0.0 0.01 0.49 0.45 94 1007.2
20260508001921 55 21 1.0 1.0 0.01 0.49 0.45 94 1007.2
20260508000921 55 15 0.0 0.0 0.01 0.49 0.45 94 1007.3
20260507235941 55 330 0.0 1.0 0.01 0.49 0.45 94 1007.2
20260507234921 55 360 1.0 1.0 0.01 0.49 0.45 94 1007.0
20260507233922 55 355 1.0 1.0 0.01 0.49 0.45 94 1006.9
20260507232922 55 353 0.0 0.0 0.00 0.48 0.44 94 1006.8
20260507231922 55 0.0 0.0 0.00 0.48 0.44 93 1006.3
20260507230922 55 319 1.0 1.0 0.00 0.48 0.44 93 1006.1
20260507225922 55 0.0 0.0 0.00 0.48 0.44 94 1006.2
20260507224943 55 166 2.0 4.0 0.00 0.48 0.44 93 1006.3
20260507223923 56 262 0.0 1.0 0.00 0.48 0.44 93 1006.2
20260507222923 56 330 1.0 2.0 0.00 0.48 0.44 94 1006.0
20260507221943 56 351 0.0 1.0 0.00 0.48 0.44 94 1006.2
20260507221003 56 317 2.0 3.0 0.00 0.48 0.44 94 1006.5
20260507215923 56 0.0 0.0 0.00 0.48 0.44 94 1006.6
20260507214944 55 302 0.0 1.0 0.00 0.48 0.44 95 1006.3
20260507213924 55 289 1.0 1.0 0.00 0.48 0.44 94 1006.1
20260507212924 55 138 0.0 0.0 0.00 0.48 0.44 95 1006.2
20260507211924 55 332 1.0 2.0 0.00 0.48 0.44 95 1006.1
20260507210940 55 0.0 0.0 0.00 0.48 0.44 95 1006.0
20260507205924 55 282 0.0 0.0 0.00 0.48 0.44 95 1006.0
20260507204920 55 311 2.0 4.0 0.00 0.48 0.44 95 1005.8
20260507203925 55 260 1.0 2.0 0.00 0.48 0.44 95 1005.8
20260507202925 55 275 1.0 2.0 0.00 0.48 0.44 95 1005.8
20260507201925 55 255 2.0 2.0 0.00 0.48 0.44 95 1005.8
20260507200926 56 293 3.0 7.0 0.00 0.48 0.44 95 1005.4
20260507195921 56 320 3.0 5.0 0.00 0.48 0.44 95 1005.6
20260507194921 56 294 3.0 4.0 0.00 0.48 0.44 95 1005.6
20260507193946 56 333 2.0 3.0 0.00 0.48 0.44 95 1005.4
20260507192922 56 294 4.0 5.0 0.00 0.48 0.44 95 1005.8
20260507191926 57 355 1.0 1.0 0.00 0.49 0.44 95 1005.7
20260507190926 57 338 1.0 2.0 0.00 0.50 0.44 95 1005.7
20260507185926 56 322 2.0 3.0 0.00 0.52 0.44 95 1005.7
20260507184927 56 339 2.0 3.0 0.00 0.54 0.44 95 1005.5
20260507183926 57 169 1.0 1.0 0.01 0.55 0.44 95 1005.6
20260507182927 57 316 1.0 2.0 0.02 0.57 0.44 95 1005.5
20260507181927 57 301 3.0 3.0 0.02 0.57 0.44 95 1004.9
20260507180927 57 308 2.0 3.0 0.02 0.57 0.44 95 1005.1
20260507174948 58 102 2.0 4.0 0.02 0.57 0.44 95 1005.4
20260507173917 58 334 2.0 3.0 0.03 0.57 0.43 95 1006.1
20260507172928 59 320 3.0 3.0 0.03 0.56 0.42 95 1005.5
20260507171928 60 336 2.0 2.0 0.03 0.56 0.42 95 1005.1
20260507170928 61 310 3.0 4.0 0.04 0.56 0.42 94 1004.6
20260507165928 63 333 1.0 2.0 0.05 0.55 0.42 94 1004.2
20260507164918 66 279 3.0 5.0 0.06 0.54 0.41 92 1004.5
20260507163928 67 300 1.0 1.0 0.05 0.53 0.40 95 1004.9
20260507162929 67 270 0.0 1.0 0.04 0.53 0.39 95 1005.5
20260507161929 67 350 1.0 2.0 0.04 0.52 0.39 95 1005.9
20260507160929 67 337 1.0 2.0 0.04 0.51 0.38 94 1005.8
20260507155939 68 348 2.0 3.0 0.04 0.50 0.37 94 1006.0
20260507155009 68 261 1.0 3.0 0.03 0.48 0.35 95 1005.9
20260507153929 68 267 2.0 3.0 0.03 0.48 0.35 95 1005.8
20260507152917 68 0.0 0.0 0.06 0.48 0.35 95 1005.6
20260507151937 67 0.0 0.0 0.08 0.48 0.35 95 1005.7
20260507150930 67 286 0.0 1.0 0.09 0.47 0.34 95 1005.9
20260507145930 67 162 1.0 2.0 0.09 0.46 0.33 95 1005.8
20260507144930 67 148 1.0 2.0 0.09 0.46 0.32 95 1005.8
20260507143930 67 0.0 0.0 0.09 0.45 0.32 95 1006.0
20260507142931 67 134 1.0 2.0 0.06 0.42 0.29 95 1005.8
20260507141917 67 133 0.0 1.0 0.04 0.40 0.26 95 1005.9
20260507140918 67 325 0.0 0.0 0.03 0.38 0.25 95 1006.0
20260507135919 67 138 0.0 1.0 0.02 0.37 0.24 96 1005.9
20260507134918 67 40 0.0 1.0 0.01 0.37 0.24 96 1006.2
20260507133958 67 0.0 0.0 0.01 0.36 0.23 96 1006.4
20260507132918 67 17 1.0 1.0 0.00 0.36 0.23 96 1006.4
20260507131919 67 148 0.0 1.0 0.00 0.36 0.23 96 1006.3
20260507130918 66 132 0.0 0.0 0.00 0.36 0.23 96 1006.3
20260507125919 66 138 1.0 1.0 0.00 0.36 0.23 96 1006.3
20260507124919 66 0.0 0.0 0.00 0.35 0.22 95 1006.5
20260507123919 66 176 0.0 2.0 0.00 0.35 0.22 95 1006.4
20260507122919 66 331 0.0 0.0 0.00 0.35 0.22 96 1006.3
20260507121919 66 0.0 0.0 0.00 0.35 0.22 95 1006.2
20260507120920 66 0.0 0.0 0.00 0.35 0.22 95 1006.3
20260507115920 66 345 0.0 0.0 0.00 0.35 0.22 95 1006.5
20260507114920 66 0.0 0.0 0.00 0.35 0.22 95 1006.3
20260507113920 66 0.0 0.0 0.00 0.35 0.22 95 1006.7
20260507112920 65 285 0.0 0.0 0.00 0.35 0.22 95 1006.7
20260507111920 65 152 0.0 1.0 0.00 0.35 0.22 95 1006.7
20260507110921 65 105 0.0 1.0 0.00 0.35 0.22 95 1006.7
20260507105921 65 315 1.0 1.0 0.00 0.35 0.22 95 1006.6
20260507104921 65 281 0.0 0.0 0.00 0.35 0.22 95 1006.3
20260507103919 65 144 2.0 2.0 0.00 0.35 0.22 95 1006.2
20260507102920 65 0.0 0.0 0.00 0.35 0.22 95 1006.3
20260507101919 65 0.0 0.0 0.00 0.35 0.22 95 1006.2
20260507101019 65 254 0.0 1.0 0.00 0.35 0.22 95 1006.2
20260507095917 64 141 0.0 1.0 0.00 0.35 0.22 95 1006.2
20260507094917 64 0.0 0.0 0.00 0.35 0.22 95 1006.1
20260507093917 64 0.0 0.0 0.00 0.35 0.22 95 1006.3
20260507092918 64 242 0.0 1.0 0.00 0.35 0.22 95 1006.2
20260507091920 64 0.0 0.0 0.00 0.35 0.22 95 1006.0
20260507090940 64 0.0 0.0 0.00 0.35 0.22 95 1006.2
20260507085917 64 0.0 0.0 0.00 0.35 0.22 95 1006.4
20260507084957 64 0.0 0.0 0.00 0.35 0.22 95 1006.4
20260507083918 65 256 0.0 2.0 0.00 0.35 0.22 95 1006.3
20260507082918 65 166 0.0 1.0 0.00 0.35 0.22 95 1006.8
20260507081918 65 0.0 0.0 0.00 0.35 0.22 95 1007.0
20260507080916 65 146 0.0 1.0 0.00 0.35 0.22 95 1007.0
20260507075938 65 0.0 0.0 0.00 0.35 0.22 95 1006.5
20260507074919 65 0.0 0.0 0.00 0.35 0.22 95 1006.7
20260507073919 65 261 0.0 1.0 0.00 0.35 0.22 95 1007.1
20260507072919 65 251 0.0 1.0 0.00 0.35 0.22 95 1007.3
20260507071919 65 0.0 0.0 0.00 0.35 0.22 95 1007.3
20260507070916 65 0.0 0.0 0.00 0.35 0.22 95 1007.3
20260507065916 65 0.0 0.0 0.00 0.35 0.22 95 1007.2
20260507064920 65 0.0 0.0 0.00 0.35 0.22 95 1007.5
20260507063940 65 359 0.0 1.0 0.00 0.35 0.22 95 1008.0
20260507062920 65 0.0 0.0 0.00 0.35 0.22 95 1008.1
20260507061917 65 285 1.0 2.0 0.01 0.35 0.22 95 1007.9
20260507060957 65 0.0 0.0 0.04 0.35 0.22 94 1007.8
20260507055917 65 286 1.0 2.0 0.10 0.35 0.22 94 1008.1
20260507054918 65 0.0 0.0 0.14 0.35 0.22 94 1008.1
20260507053918 65 304 0.0 1.0 0.16 0.35 0.22 94 1008.2
20260507052918 65 4 2.0 4.0 0.20 0.35 0.22 94 1008.0
20260507051918 66 136 0.0 1.0 0.21 0.34 0.21 93 1007.4
20260507050919 66 13 0.0 1.0 0.18 0.31 0.18 93 1007.8
20260507045919 66 155 2.0 3.0 0.12 0.25 0.12 93 1007.9
20260507044919 67 156 2.0 4.0 0.09 0.21 0.08 92 1008.0
20260507043916 67 146 1.0 2.0 0.07 0.19 0.06 91 1009.2
20260507042919 68 270 1.0 4.0 0.04 0.15 0.02 90 1009.6
20260507041919 68 124 2.0 4.0 0.02 0.13 0.00 87 1009.7
20260507040920 68 9 2.0 4.0 0.03 0.13 0.00 88 1009.4
20260507035917 68 71 1.0 4.0 0.04 0.13 0.13 90 1008.8
20260507034937 68 0.0 0.0 0.04 0.12 0.12 90 1008.4
20260507033917 68 259 0.0 1.0 0.03 0.12 0.12 88 1007.8
20260507032917 69 0.0 0.0 0.03 0.12 0.12 87 1008.1
20260507031919 70 124 1.0 2.0 0.03 0.12 0.12 85 1008.3
20260507030917 71 0.0 0.0 0.02 0.10 0.10 83 1008.3
20260507025938 71 166 1.0 2.0 0.00 0.09 0.09 79 1007.9
20260507024918 71 49 0.0 2.0 0.00 0.09 0.09 79 1007.7
20260507023938 70 149 1.0 3.0 0.00 0.09 0.09 80 1007.7
20260507022918 70 220 0.0 1.0 0.00 0.09 0.09 81 1007.6
20260507021918 70 301 0.0 1.0 0.00 0.09 0.09 84 1007.6
20260507020938 70 0.0 0.0 0.00 0.09 0.09 83 1007.4